Airfield :







YOU CAN JOIN US ON...

 
LOGIN :

Register | Disclaimer

   EN    FR    IT 

 









Legend :    VFR   Marginal VFR   IFR   Intensive IFR   Very Intensive IFR
Visi :
Ceiling :
>= 8 km
>= 3000ft
5 to 8 km
1000 to 3000 ft
1500m to 5 km
500 to 1000 ft
800 to 1500m
200 to 500 ft
< 800m
< 200 ft
Symbols :   Thunderstorms  Fog  Heavy snow  Heavy precipitations  Wind > 20 kt







- Airport Elevation : 27 ft
- IATA code : FSP
- Download approach charts


LFVP - St Pierre et Miquelon

CURRENT METAR :
  • 242100Z 26006KT 240V300 9999 SCT046 BKN150 11/07 Q1007

EXPIRED METARs :
  • 242000Z 27008KT 9999 SCT049 SCT130 BKN190 12/07 Q1007
  • 241900Z 27011KT 240V310 9999 BKN049 SCT130 BKN190 13/08 Q1007

TAF TAF LFVP
Valid from the 24 at 18:00 until the 25 at 03:00 UTC


241700Z 2418/2503 24010KT 9999 SCT040 SCT130
BECMG 2419/2422 FEW015 BKN030 OVC090
PROB30
TEMPO 2420/2424 3500 -RA BR BKN003 BKN023
CZQX FIR / North America



MET'MAP, your aeronautical weather chart ! - Copyright ORBIFLY December 2007 - Disclaimer

ORBIFLY MET'MAP TEAM :

Programming & Development : Alexandra Zaïnal
Concept & Development : Baudouin d'Aumeries
Co-Development & Prog : Marc-Olivier Méhu
Technical & hardware support : Manuel Goepfert

Contact : metmap@orbifly.com




SOURCES & CREDITS :

   NOAA